Weather History for Clarksburg, WV

Change the Weather History Date:

Saturday, December 29, 2012

  Actual Average Record
Temperature  
Mean Temperature 32 °F -  
Max Temperature 35 °F 40 °F 72 °F (1984)
Min Temperature 28 °F 23 °F 3 °F (1950)
Degree Days  
Heating Degree Days 32    
Moisture  
Dew Point 30 °F    
Average Humidity 89    
Maximum Humidity 100    
Minimum Humidity 82    
Precipitation  
Precipitation 0.30 in - - ()
Sea Level Pressure  
Sea Level Pressure 29.73 in    
Wind  
Wind Speed 6 mph (WNW)    
Max Wind Speed 14 mph    
Max Gust Speed 22 mph    
Visibility 4 miles    
Events Fog , Rain , Snow    
Averages and records for this station are not official NWS values.
T = Trace of Precipitation, MM = Missing Value Source: NWS Daily Summary

Daily Weather History Graph

Daily Weather History Graph

Search for Another Location

Airport:

Trip Planner

Search our weather history database for the weather conditions in past years. The results will help you decide how hot, cold, wet, or windy it might be!

Date:

Astronomy

Dec. 29, 2012 Rise Set
Actual Time 7:40 AM EST 5:06 PM EST
Civil Twilight 7:10 AM EST 5:36 PM EST
Nautical Twilight 6:36 AM EST 6:10 PM EST
Astronomical Twilight 6:03 AM EST 6:42 PM EST
Moon 6:37 PM EST (12/29) 8:13 AM EST (12/29)
Length of Visible Light 10h 26m
Length of Day
9h 26m
Full, 98% of the Moon is Illuminated
Dec 29
Full
Jan 4
Last Quarter
Jan 11
New
Jan 18
First Quarter
Jan 26
Full

Hourly Weather History & Observations

Time (EST) Temp. Windchill Dew Point Humidity Pressure Visibility Wind Dir Wind Speed Gust Speed Precip Events Conditions
12:53 AM 30.9 °F 27.5 °F 28.0 °F 89% 29.87 in 9.0 mi NNE 3.5 mph - N/A   Overcast
1:53 AM 32.0 °F 27.5 °F 28.9 °F 88% 29.81 in 5.0 mi ENE 4.6 mph - 0.00 in Snow Light Snow
2:53 AM 32.0 °F 28.7 °F 30.0 °F 92% 29.78 in 4.0 mi ENE 3.5 mph - 0.00 in Snow Light Snow
3:05 AM 33.8 °F 29.6 °F 30.2 °F 87% 29.75 in 3.0 mi NE 4.6 mph - 0.00 in Snow Light Snow
3:27 AM 33.8 °F 28.6 °F 30.2 °F 87% 29.73 in 2.5 mi ENE 5.8 mph - 0.00 in Snow Light Snow
3:36 AM 33.8 °F 27.7 °F 30.2 °F 87% 29.71 in 3.0 mi NE 6.9 mph - 0.00 in Snow Light Snow
3:50 AM 33.8 °F 29.6 °F 30.2 °F 87% 29.70 in 2.5 mi NE 4.6 mph - 0.00 in Snow Light Snow
3:53 AM 33.1 °F 28.7 °F 30.9 °F 92% 29.72 in 2.5 mi NE 4.6 mph - 0.00 in Snow Light Snow
4:05 AM 32.0 °F 26.4 °F 30.2 °F 93% 29.70 in 2.5 mi NNE 5.8 mph - 0.00 in Snow Light Snow
4:11 AM 32.0 °F 26.4 °F 30.2 °F 93% 29.69 in 1.8 mi NNE 5.8 mph - 0.00 in Snow Light Snow
4:29 AM 32.0 °F 26.4 °F 30.2 °F 93% 29.68 in 0.8 mi NNE 5.8 mph - 0.00 in Snow Light Snow
4:32 AM 32.0 °F 27.5 °F 30.2 °F 93% 29.68 in 1.0 mi NNE 4.6 mph - 0.00 in Snow Light Snow
4:53 AM 32.0 °F 27.5 °F 30.9 °F 96% 29.68 in 1.5 mi NNE 4.6 mph - 0.00 in Snow Light Snow
5:13 AM 32.0 °F - 30.2 °F 93% 29.66 in 2.0 mi Calm Calm - 0.00 in Snow Light Snow
5:40 AM 32.0 °F - 30.2 °F 93% 29.65 in 3.0 mi Calm Calm - 0.00 in Snow Light Snow
5:49 AM 32.0 °F - 30.2 °F 93% 29.65 in 2.0 mi Calm Calm - 0.00 in Snow Light Snow
5:50 AM 32.0 °F - 30.9 °F 96% 29.66 in 2.0 mi Calm Calm - 0.00 in Snow Light Snow
6:10 AM 33.8 °F - 30.2 °F 87% 29.65 in 1.8 mi Calm Calm - 0.00 in Snow Light Snow
6:33 AM 32.0 °F - 32.0 °F 100% 29.65 in 0.8 mi Calm Calm - 0.00 in Snow Light Snow
6:53 AM 33.1 °F - 32.0 °F 96% 29.66 in 1.8 mi Calm Calm - 0.00 in Snow Light Snow
7:10 AM 32.0 °F - 30.2 °F 93% 29.64 in 0.5 mi Calm Calm - 0.00 in Fog , Snow Light Snow
7:23 AM 33.8 °F - 32.0 °F 93% 29.64 in 2.0 mi Calm Calm - 0.00 in Snow Light Snow
7:36 AM 33.8 °F 30.8 °F 30.2 °F 87% 29.64 in 2.5 mi West 3.5 mph - 0.00 in Snow Light Snow
7:46 AM 33.8 °F 29.6 °F 30.2 °F 87% 29.64 in 3.0 mi SW 4.6 mph - 0.00 in Snow Light Snow
7:53 AM 33.1 °F 28.7 °F 30.9 °F 92% 29.65 in 4.0 mi SSW 4.6 mph - 0.00 in Snow Light Snow
8:53 AM 34.0 °F 28.0 °F 32.0 °F 92% 29.65 in 5.0 mi SSW 6.9 mph - 0.00 in Rain Light Rain
9:53 AM 35.1 °F 27.4 °F 32.0 °F 89% 29.66 in 10.0 mi SW 10.4 mph - 0.01 in Rain Light Rain
10:00 AM 35.6 °F 27.5 °F 32.0 °F 87% 29.65 in 7.0 mi SW 11.5 mph - 0.00 in Rain Light Rain
10:21 AM 35.6 °F 27.1 °F 32.0 °F 87% 29.66 in 7.0 mi SW 12.7 mph 19.6 mph 0.03 in Rain Light Rain
10:53 AM 35.1 °F 27.4 °F 32.0 °F 89% 29.68 in 5.0 mi WSW 10.4 mph - 0.12 in Snow Light Snow
11:53 AM 34.0 °F 25.5 °F 32.0 °F 92% 29.68 in 2.0 mi WSW 11.5 mph - 0.10 in Snow Light Snow
12:20 PM 33.8 °F 25.3 °F 30.2 °F 87% 29.67 in 5.0 mi WSW 11.5 mph - 0.02 in Snow Light Snow
12:28 PM 33.8 °F 25.8 °F 30.2 °F 87% 29.67 in 4.0 mi West 10.4 mph 19.6 mph 0.02 in Snow Light Snow
12:53 PM 34.0 °F 26.0 °F 30.9 °F 89% 29.69 in 5.0 mi WSW 10.4 mph 18.4 mph 0.04 in Snow Light Snow
1:53 PM 34.0 °F 25.5 °F 30.0 °F 85% 29.70 in 9.0 mi West 11.5 mph 18.4 mph 0.02 in   Overcast
2:53 PM 33.1 °F 23.9 °F 28.9 °F 85% 29.73 in 8.0 mi WSW 12.7 mph 19.6 mph 0.01 in   Overcast
3:53 PM 32.0 °F 22.1 °F 28.0 °F 85% 29.78 in 6.0 mi West 13.8 mph 19.6 mph 0.00 in   Overcast
4:53 PM 32.0 °F 22.1 °F 27.0 °F 82% 29.81 in 5.0 mi West 13.8 mph 21.9 mph 0.00 in   Haze
6:53 PM 32.0 °F 24.2 °F 27.0 °F 82% 29.88 in 5.0 mi WNW 9.2 mph 20.7 mph 0.00 in Snow Light Snow
7:53 PM 30.9 °F 23.5 °F 27.0 °F 85% 29.90 in 3.0 mi West 8.1 mph 20.7 mph 0.00 in Snow Light Snow
8:53 PM 30.9 °F 23.5 °F 27.0 °F 85% 29.91 in 4.0 mi West 8.1 mph 17.3 mph 0.00 in Snow Light Snow
9:53 PM 30.0 °F 20.0 °F 26.1 °F 85% 29.94 in 4.0 mi West 12.7 mph - 0.00 in Snow Light Snow
10:39 PM 30.2 °F 21.3 °F 26.6 °F 86% 29.94 in 5.0 mi West 10.4 mph - 0.00 in Snow Light Snow
10:53 PM 30.0 °F 20.0 °F 25.0 °F 82% 29.96 in 4.0 mi West 12.7 mph 20.7 mph 0.00 in Snow Light Snow
11:22 PM 30.2 °F 22.6 °F 26.6 °F 86% 29.96 in 2.5 mi West 8.1 mph - 0.00 in Snow Light Snow
11:53 PM 28.9 °F 18.6 °F 25.0 °F 85% 29.99 in 2.5 mi West 12.7 mph 19.6 mph 0.00 in Snow Light Snow